[[{"header":{"parameterUnit":"m.s-1","parameterCategory":1,"la1":30.2991,"la2":30.254,"lo1":-89.0895,"lo2":-89.0444,"dy":0.0017,"dx":0.0017,"nx":28,"ny":28,"refTime":"2024-04-09T21:00:00:Z","depth":0,"parameterNumber":2,"parameterNumberName":"U-component_of_WINDS"},"data":[0,0,0,0,0,0,0,0,0,0,0,0,0,0,0,0,0,0,0,0,0,0,0,0,0,0,0,0,0,0,0,0,0,0,0,0,0,0,0,0,0,0,0,0,0,0,0,0,0,0,0,0,0,0,0,0,0,0,7.3429,7.3431,0,7.3651,7.3653,7.3656,7.365,7.3647,7.3644,7.3642,7.387,7.3879,7.3888,0,0,0,0,0,0,0,0,0,0,0,0,0,7.3006,7.3014,7.3429,7.3432,7.3434,7.365,7.3653,7.3656,7.3651,7.3647,7.3644,7.364,7.3868,7.3878,7.3889,0,0,0,0,0,0,0,0,0,0,0,0,0,7.3205,7.3016,7.3428,7.3458,7.3463,7.3649,7.3653,7.3657,7.3652,7.3647,7.3643,7.3639,7.3864,7.3877,7.389,7.4063,0,0,7.3931,7.3937,0,0,0,0,0,0,0,0,7.3193,7.322,7.3451,7.3456,7.3462,7.3618,7.3588,7.3793,7.3653,7.358,7.3642,7.3636,7.379,7.3809,7.3861,7.4074,7.4084,7.3932,7.394,7.3946,7.395,0,0,0,0,0,0,0,7.318,7.3211,7.3517,7.3454,7.3461,7.3461,7.3485,7.3627,7.3708,7.3586,7.3586,7.3612,7.3793,7.3848,7.3866,7.4087,7.3932,7.3944,7.3952,7.3957,7.4457,7.4462,0,0,0,0,0,0,7.3159,7.3199,7.351,7.3523,7.3314,7.3473,7.3499,7.3573,7.3706,7.3722,7.3616,7.3611,7.3828,7.3851,7.3874,7.4088,7.3946,7.3958,7.3966,7.4452,7.4458,7.4464,0,0,0,0,0,0,7.315,7.3187,7.3501,7.3362,7.3401,7.3485,7.3568,7.3579,7.3635,7.3729,7.3744,7.3658,7.3825,7.3856,7.4017,7.4096,7.3964,7.3977,7.4445,7.4453,7.4461,7.4515,0,0,0,0,0,0,7.3138,7.3184,7.3249,7.3363,7.3409,7.3638,7.3573,7.3587,7.3658,7.3654,7.3772,7.3787,7.3824,7.3997,7.403,7.4112,7.3987,7.4439,7.4449,7.4458,7.4507,7.4524,7.4539,0,0,0,0,0,7.3123,7.3255,7.3252,7.329,7.3492,7.3643,7.3669,7.3708,7.3664,7.3731,7.3792,7.3783,7.4082,7.4014,7.4051,7.4138,7.4434,7.4446,7.4457,7.45,7.4521,7.4538,0,0,0,0,0,0,7.3148,7.327,7.3269,7.3441,7.3532,7.3642,7.3727,7.3728,7.3833,7.3825,7.387,7.3897,7.4059,7.4114,7.4036,7.4314,7.4253,7.4272,7.4272,7.4293,7.4308,7.4292,7.3998,0,0,0,0,0,7.3174,7.3285,7.3386,7.3529,7.3574,7.3643,7.371,7.3733,7.3828,7.3867,7.3939,7.4033,7.4149,7.4223,7.4334,7.4515,7.4542,7.4593,7.4609,7.4622,7.4639,7.4742,7.4767,7.4502,7.4502,7.4502,0,0,7.3228,7.3309,7.3376,7.3536,7.3609,7.3725,7.3675,7.3799,7.3886,7.3886,7.4043,7.41,7.4208,7.438,7.446,7.4432,7.4718,7.4637,7.4646,7.4657,7.4756,7.4781,7.4804,7.4511,7.4509,7.4508,0,0,7.3386,7.3457,7.3586,7.366,7.3771,7.3816,7.3847,7.3958,7.3996,7.4154,7.4157,7.4262,7.4458,7.4536,7.4602,7.4793,7.479,7.4828,7.4912,7.5012,7.5033,7.5051,7.5122,7.5147,7.4845,7.4845,7.4845,0,7.344,7.3613,7.3651,7.3777,7.3849,7.3854,7.3986,7.4056,7.4197,7.4248,7.4214,7.4463,7.4536,7.4728,7.4775,7.4827,7.4866,7.4815,7.5026,7.5046,7.5064,7.5132,7.5158,7.4849,7.4848,7.4848,7.4847,0,7.3675,7.3796,7.3887,7.4024,7.4106,7.4233,7.4293,7.4371,7.4387,7.4437,7.46,7.4688,7.4818,7.4866,7.4882,7.5062,7.5041,7.5016,7.4956,7.5092,7.5157,7.5183,7.4855,7.4853,7.4852,7.4851,0,0,7.3855,7.4013,7.4046,7.411,7.4234,7.4328,7.4458,7.4585,7.4653,7.4751,7.4863,7.503,7.5009,7.5084,7.5109,7.5196,7.5346,7.5162,7.5165,7.5195,7.5553,7.5572,7.5601,7.5345,7.535,7.5354,7.5545,0,7.4028,7.4257,7.4296,7.4497,7.4611,7.4619,7.4732,7.4821,7.4872,7.4977,7.5033,7.5152,7.5114,7.5159,7.5246,7.5309,7.5419,7.5296,7.5451,7.5456,7.5425,7.5635,7.5655,7.5831,7.557,7.5574,7.5578,0,7.426,7.4365,7.4577,7.4689,7.4738,7.4839,7.4961,7.506,7.5163,7.5194,7.5278,7.5294,7.5432,7.5364,7.5555,7.5471,7.5537,7.5578,7.5586,7.5603,7.5526,7.566,7.5888,7.5915,7.5617,7.5614,7.5611,0,7.4373,7.4567,7.472,7.4774,7.4907,7.4979,7.5038,7.5136,7.5211,7.5318,7.5367,7.5489,7.5556,7.565,7.57,7.5646,7.5889,7.5824,7.592,7.5919,7.5972,7.5968,7.6215,7.6011,7.6011,7.601,7.601,0,7.4563,7.4693,7.4773,7.4867,7.5015,7.506,7.5205,7.5262,7.535,7.5458,7.5471,7.5572,7.563,7.574,7.578,7.5934,7.5963,7.5994,7.6003,7.5994,7.599,7.6039,7.6028,7.6017,7.6016,7.6014,7.6013,0,7.4714,7.4772,7.494,7.5053,7.5085,7.5188,7.5286,7.5379,7.543,7.5566,7.56,7.5681,7.5811,7.587,7.603,7.6057,7.6234,7.6233,7.6199,7.6203,7.6296,7.6287,7.6584,7.6627,7.6392,7.6394,7.6396,0,7.4832,7.4933,7.5057,7.513,7.5191,7.5307,7.5385,7.5434,7.5514,7.564,7.5719,7.5849,7.5957,7.6165,7.6239,7.6363,7.6367,7.6463,7.6386,7.6374,7.6372,7.6366,7.6377,7.6477,7.6479,7.6481,7.6483,0,7.5037,7.5062,7.5172,7.5293,7.5385,7.5483,7.5579,7.5638,7.5703,7.5793,7.5926,7.6009,7.6174,7.6305,7.6434,7.6497,7.6503,7.6506,7.6536,7.6528,7.6505,7.6521,7.6239,7.6499,7.6498,7.6497,7.6496,7.6495,7.5177,7.5268,7.5371,7.5494,7.5571,7.5662,7.5755,7.5819,7.593,7.6068,7.6091,7.6234,7.6337,7.6511,7.6579,7.6693,7.667,7.6711,7.6722,7.6732,7.6739,7.6485,7.6716,7.6716,7.6715,7.6715,7.6715,0,7.5385,7.5451,7.5564,7.5699,7.5797,7.5792,7.5899,7.5981,7.6107,7.6202,7.6308,7.6463,7.6591,7.6675,7.6805,7.688,7.6886,7.6913,7.6909,7.6924,7.6751,7.6714,7.6906,7.6906,7.6906,7.6906,7.6906,7.6906,7.5505,7.5659,7.5696,7.5891,7.5957,7.6097,7.6159,7.6243,7.632,7.6492,7.6598,7.6652,7.6744,7.6881,7.6999,7.7021,7.7069,7.7097,7.7118,7.6955,7.6936,7.6917,7.6882,7.7107,7.7107,7.7282,7.7284,7.7285]},{"header":{"parameterUnit":"m.s-1","parameterCategory":1,"la1":30.2991,"la2":30.254,"lo1":-89.0895,"lo2":-89.0444,"dy":0.0017,"dx":0.0017,"nx":28,"ny":28,"refTime":"2024-04-09T21:00:00:Z","depth":0,"parameterNumber":3,"parameterNumberName":"V-component_of_WINDS"},"data":[0,0,0,0,0,0,0,0,0,0,0,0,0,0,0,0,0,0,0,0,0,0,0,0,0,0,0,0,0,0,0,0,0,0,0,0,0,0,0,0,0,0,0,0,0,0,0,0,0,0,0,0,0,0,0,0,0,0,-3.6787,-3.6787,0,-3.6792,-3.6792,-3.6792,-3.6779,-3.6779,-3.6779,-3.6778,-3.6782,-3.6782,-3.6782,0,0,0,0,0,0,0,0,0,0,0,0,0,-3.6767,-3.6767,-3.6787,-3.6787,-3.6787,-3.6792,-3.6792,-3.6792,-3.678,-3.6779,-3.6779,-3.6778,-3.6781,-3.6782,-3.6782,0,0,0,0,0,0,0,0,0,0,0,0,0,-3.6774,-3.6768,-3.6787,-3.6782,-3.6781,-3.6792,-3.6792,-3.6792,-3.678,-3.6779,-3.6778,-3.6778,-3.6781,-3.6782,-3.6783,-3.6798,0,0,-3.6785,-3.6785,0,0,0,0,0,0,0,0,-3.6774,-3.6775,-3.6782,-3.6782,-3.6782,-3.6784,-3.6786,-3.6794,-3.678,-3.678,-3.6778,-3.6778,-3.6783,-3.6783,-3.6785,-3.6798,-3.6798,-3.6785,-3.6785,-3.6785,-3.6785,0,0,0,0,0,0,0,-3.6773,-3.6775,-3.6789,-3.6782,-3.6782,-3.6779,-3.6779,-3.6787,-3.6785,-3.678,-3.6779,-3.678,-3.6783,-3.6785,-3.6785,-3.6798,-3.6785,-3.6785,-3.6786,-3.6786,-3.6825,-3.6825,0,0,0,0,0,0,-3.6774,-3.6774,-3.6789,-3.6789,-3.6776,-3.678,-3.678,-3.6784,-3.6784,-3.6784,-3.678,-3.6779,-3.6784,-3.6785,-3.6785,-3.6804,-3.6785,-3.6786,-3.6786,-3.6824,-3.6825,-3.6825,0,0,0,0,0,0,-3.6773,-3.6775,-3.6788,-3.6781,-3.6783,-3.6781,-3.6785,-3.6784,-3.6787,-3.6785,-3.6784,-3.6783,-3.6784,-3.6785,-3.6795,-3.6804,-3.6786,-3.6787,-3.6823,-3.6824,-3.6825,-3.684,0,0,0,0,0,0,-3.6773,-3.6775,-3.6781,-3.6782,-3.6783,-3.6798,-3.6786,-3.6785,-3.6788,-3.6787,-3.6787,-3.6787,-3.6783,-3.6794,-3.6796,-3.6804,-3.6787,-3.6822,-3.6824,-3.6825,-3.6839,-3.6842,-3.6844,0,0,0,0,0,-3.6772,-3.6784,-3.6781,-3.6783,-3.6791,-3.6799,-3.68,-3.6796,-3.6789,-3.6795,-3.6794,-3.6787,-3.6803,-3.6795,-3.6797,-3.6806,-3.6822,-3.6823,-3.6825,-3.6838,-3.6841,-3.6844,0,0,0,0,0,0,-3.6783,-3.6784,-3.6781,-3.6794,-3.6796,-3.6797,-3.6804,-3.6799,-3.6803,-3.6802,-3.6796,-3.6796,-3.6808,-3.6808,-3.68,-3.6821,-3.6811,-3.6813,-3.6821,-3.6824,-3.6826,-3.6825,-3.6788,0,0,0,0,0,-3.6788,-3.6795,-3.6795,-3.6806,-3.6808,-3.6806,-3.6809,-3.6806,-3.6808,-3.6809,-3.6809,-3.6811,-3.6817,-3.682,-3.6825,-3.6839,-3.6839,-3.6846,-3.6849,-3.6851,-3.6852,-3.686,-3.6863,-3.683,-3.683,-3.683,0,0,-3.6796,-3.6797,-3.6802,-3.6809,-3.681,-3.6818,-3.6807,-3.6814,-3.682,-3.681,-3.682,-3.682,-3.6823,-3.6835,-3.6841,-3.6835,-3.6861,-3.6853,-3.6854,-3.6854,-3.6862,-3.6865,-3.6868,-3.6831,-3.6831,-3.6831,0,0,-3.6815,-3.6817,-3.6827,-3.6829,-3.6832,-3.6831,-3.6834,-3.6835,-3.6835,-3.6845,-3.6838,-3.6845,-3.6854,-3.6856,-3.6858,-3.688,-3.6874,-3.6882,-3.6894,-3.6902,-3.6904,-3.6907,-3.6914,-3.6917,-3.6883,-3.6883,-3.6883,0,-3.6824,-3.6835,-3.6832,-3.6841,-3.6844,-3.6837,-3.6847,-3.685,-3.6854,-3.6856,-3.6851,-3.6863,-3.6864,-3.6877,-3.6883,-3.6885,-3.6888,-3.6881,-3.6904,-3.6907,-3.6909,-3.6916,-3.6919,-3.6884,-3.6884,-3.6884,-3.6884,0,-3.6847,-3.6855,-3.6863,-3.6868,-3.6872,-3.6882,-3.688,-3.6885,-3.6882,-3.6881,-3.6892,-3.6893,-3.6899,-3.6902,-3.6898,-3.6915,-3.6911,-3.6905,-3.6895,-3.6913,-3.6919,-3.6922,-3.6885,-3.6885,-3.6885,-3.6885,0,0,-3.6872,-3.6877,-3.6879,-3.6882,-3.6886,-3.6892,-3.6901,-3.6907,-3.6911,-3.6915,-3.6923,-3.6932,-3.6926,-3.6929,-3.6926,-3.6933,-3.695,-3.6926,-3.6926,-3.693,-3.6968,-3.6972,-3.6975,-3.6947,-3.6947,-3.6948,-3.6968,0,-3.689,-3.6907,-3.6905,-3.692,-3.6928,-3.6922,-3.693,-3.6933,-3.6934,-3.694,-3.6939,-3.6946,-3.6939,-3.694,-3.6947,-3.6947,-3.6957,-3.6945,-3.6953,-3.6953,-3.6952,-3.6979,-3.6983,-3.7002,-3.697,-3.6971,-3.6971,0,-3.6913,-3.6919,-3.6936,-3.694,-3.6942,-3.695,-3.6956,-3.6962,-3.6965,-3.6965,-3.6969,-3.6965,-3.6974,-3.6965,-3.6978,-3.6969,-3.6973,-3.6973,-3.6974,-3.6974,-3.6963,-3.6979,-3.7008,-3.7011,-3.6975,-3.6975,-3.6974,0,-3.693,-3.6941,-3.6953,-3.6956,-3.696,-3.6966,-3.6968,-3.6971,-3.6975,-3.698,-3.6983,-3.6989,-3.6992,-3.6996,-3.6994,-3.6988,-3.7008,-3.6998,-3.7007,-3.7007,-3.7011,-3.701,-3.704,-3.7014,-3.7014,-3.7014,-3.7014,0,-3.695,-3.696,-3.696,-3.6967,-3.6979,-3.6977,-3.6989,-3.699,-3.6993,-3.7,-3.6996,-3.7002,-3.7,-3.7006,-3.7005,-3.7016,-3.7017,-3.7017,-3.7016,-3.7017,-3.7017,-3.7018,-3.7017,-3.7015,-3.7015,-3.7014,-3.7014,0,-3.6969,-3.697,-3.6982,-3.6986,-3.6987,-3.6996,-3.6999,-3.7006,-3.7006,-3.7015,-3.7017,-3.7017,-3.7025,-3.7024,-3.7032,-3.7031,-3.7045,-3.7043,-3.7043,-3.7043,-3.7052,-3.7051,-3.7083,-3.7087,-3.7059,-3.7059,-3.706,0,-3.6982,-3.699,-3.6995,-3.7,-3.7003,-3.7011,-3.7015,-3.7014,-3.7019,-3.7025,-3.7031,-3.7038,-3.7044,-3.7056,-3.7057,-3.7063,-3.7061,-3.7072,-3.7062,-3.7062,-3.7061,-3.706,-3.7061,-3.7073,-3.7074,-3.7074,-3.7074,0,-3.7004,-3.7005,-3.7012,-3.7019,-3.7025,-3.7031,-3.7036,-3.704,-3.7039,-3.7045,-3.7053,-3.7058,-3.7067,-3.7074,-3.708,-3.7082,-3.7078,-3.7078,-3.708,-3.7081,-3.7081,-3.708,-3.7048,-3.7077,-3.7076,-3.7076,-3.7076,-3.7076,-3.702,-3.7028,-3.7033,-3.7041,-3.7045,-3.705,-3.7057,-3.7059,-3.7066,-3.7074,-3.7073,-3.7082,-3.7086,-3.7094,-3.7097,-3.7104,-3.71,-3.7103,-3.7104,-3.7105,-3.7106,-3.708,-3.7105,-3.7105,-3.7105,-3.7105,-3.7105,0,-3.7042,-3.7046,-3.7054,-3.7062,-3.7068,-3.7065,-3.7071,-3.7076,-3.7085,-3.709,-3.7096,-3.7106,-3.7113,-3.7115,-3.7122,-3.7127,-3.7126,-3.7129,-3.7128,-3.7129,-3.7109,-3.7106,-3.713,-3.713,-3.713,-3.713,-3.713,-3.713,-3.7055,-3.7067,-3.7068,-3.7082,-3.7085,-3.7095,-3.7099,-3.7103,-3.7107,-3.7119,-3.7125,-3.7127,-3.713,-3.7138,-3.7145,-3.7145,-3.7147,-3.7152,-3.7151,-3.7133,-3.713,-3.7128,-3.7125,-3.7152,-3.7152,-3.717,-3.717,-3.717]}]]